TimeEDT,TemperatureF,Dew PointF,Humidity,Sea Level PressureIn,VisibilityMPH,Wind Direction,Wind SpeedMPH,Gust SpeedMPH,PrecipitationIn,Events,Conditions,WindDirDegrees,DateUTC
12:15 AM,72.5,70.0,92,29.92,10.0,Calm,Calm,-,N/A,Rain,Rain,0,2013-07-12 04:15:00
12:35 AM,72.5,70.3,93,29.93,7.0,SE,4.6,-,0.04,Rain,Rain,140,2013-07-12 04:35:00
12:55 AM,72.5,70.5,93,29.92,2.0,Calm,Calm,-,0.31,Rain,Heavy Rain,0,2013-07-12 04:55:00
1:15 AM,72.7,70.7,93,29.92,5.0,SE,3.5,-,0.09,Rain,Rain,140,2013-07-12 05:15:00
1:35 AM,72.7,70.7,93,29.93,7.0,SSE,4.6,-,0.13,Rain,Rain,160,2013-07-12 05:35:00
1:55 AM,72.5,70.5,93,29.91,5.0,SSW,4.6,-,0.17,Rain,Rain,200,2013-07-12 05:55:00
2:15 AM,72.0,69.8,93,29.91,7.0,Calm,Calm,-,0.02,Rain,Light Rain,0,2013-07-12 06:15:00
2:35 AM,72.0,69.8,93,29.90,10.0,Calm,Calm,-,0.04,Rain,Light Rain,0,2013-07-12 06:35:00
2:55 AM,71.8,69.6,93,29.90,10.0,Calm,Calm,-,0.04,Rain,Rain,0,2013-07-12 06:55:00
3:15 AM,72.0,70.0,93,29.90,10.0,SSE,3.5,-,N/A,,Overcast,150,2013-07-12 07:15:00
3:35 AM,72.0,70.0,93,29.90,10.0,Calm,Calm,-,0.01,Rain,Light Rain,0,2013-07-12 07:35:00
3:55 AM,71.8,69.8,93,29.89,10.0,Calm,Calm,-,0.01,Rain,Light Rain,0,2013-07-12 07:55:00
4:15 AM,71.6,69.6,93,29.89,10.0,Calm,Calm,-,N/A,,Light Drizzle,0,2013-07-12 08:15:00
4:35 AM,71.4,69.4,93,29.88,10.0,Calm,Calm,-,N/A,,Light Drizzle,0,2013-07-12 08:35:00
4:55 AM,71.4,69.6,94,29.88,10.0,Calm,Calm,-,N/A,,Mostly Cloudy,0,2013-07-12 08:55:00
5:15 AM,71.6,69.8,94,29.88,10.0,Calm,Calm,-,N/A,,Overcast,0,2013-07-12 09:15:00
5:35 AM,71.6,69.8,94,29.89,10.0,Calm,Calm,-,N/A,,Overcast,0,2013-07-12 09:35:00
5:55 AM,71.6,69.8,94,29.90,10.0,Calm,Calm,-,N/A,,Overcast,0,2013-07-12 09:55:00
6:15 AM,71.6,69.8,94,29.91,10.0,Calm,Calm,-,N/A,,Overcast,0,2013-07-12 10:15:00
6:35 AM,71.6,69.8,94,29.91,3.0,Calm,Calm,-,0.05,Rain,Rain,0,2013-07-12 10:35:00
6:55 AM,72.0,70.0,93,29.91,7.0,Calm,Calm,-,0.06,,Drizzle,0,2013-07-12 10:55:00
7:15 AM,72.0,70.2,94,29.91,2.0,Calm,Calm,-,0.10,Rain,Heavy Rain,0,2013-07-12 11:15:00
7:35 AM,72.3,70.3,93,29.91,7.0,Calm,Calm,-,0.11,Rain,Light Rain,0,2013-07-12 11:35:00
7:55 AM,72.7,70.7,93,29.91,10.0,Calm,Calm,-,0.11,,Mostly Cloudy,0,2013-07-12 11:55:00
8:15 AM,73.2,70.9,92,29.90,10.0,South,3.5,-,N/A,,Scattered Clouds,180,2013-07-12 12:15:00
8:35 AM,73.6,71.1,92,29.91,10.0,Calm,Calm,-,N/A,,Scattered Clouds,0,2013-07-12 12:35:00
8:55 AM,74.3,71.6,91,29.92,10.0,SSW,4.6,-,N/A,,Overcast,200,2013-07-12 12:55:00
9:15 AM,75.2,72.0,90,29.93,10.0,Calm,Calm,-,N/A,,Overcast,0,2013-07-12 13:15:00
9:35 AM,75.9,72.1,88,29.94,10.0,South,4.6,-,N/A,,Overcast,190,2013-07-12 13:35:00
9:55 AM,75.9,71.8,87,29.94,10.0,SW,3.5,-,N/A,Rain,Light Rain,220,2013-07-12 13:55:00
10:15 AM,75.9,72.1,88,29.93,10.0,Calm,Calm,-,N/A,Rain,Light Rain,0,2013-07-12 14:15:00
10:35 AM,75.7,72.1,89,29.93,10.0,WSW,3.5,-,N/A,Rain,Light Rain,240,2013-07-12 14:35:00
10:55 AM,75.2,71.2,87,29.94,10.0,NNE,4.6,-,N/A,,Light Drizzle,30,2013-07-12 14:55:00
11:15 AM,74.3,69.6,85,29.95,10.0,Calm,Calm,-,N/A,Rain,Light Rain,0,2013-07-12 15:15:00
11:35 AM,74.5,69.8,85,29.95,10.0,North,3.5,-,0.01,,Light Drizzle,350,2013-07-12 15:35:00
11:55 AM,74.7,69.6,84,29.95,10.0,NNW,3.5,-,0.01,,Light Drizzle,340,2013-07-12 15:55:00
12:15 PM,74.7,69.4,84,29.95,10.0,Calm,Calm,-,N/A,Rain,Light Rain,0,2013-07-12 16:15:00
12:35 PM,74.5,69.3,84,29.95,10.0,Calm,Calm,-,N/A,Rain,Light Rain,0,2013-07-12 16:35:00
12:55 PM,73.9,69.1,85,29.95,10.0,NW,3.5,-,N/A,Rain,Light Rain,320,2013-07-12 16:55:00
1:15 PM,73.9,69.4,86,29.95,10.0,North,3.5,-,N/A,Rain,Light Rain,360,2013-07-12 17:15:00
1:35 PM,73.8,69.6,87,29.94,10.0,NNE,4.6,-,0.01,Rain,Rain,20,2013-07-12 17:35:00
1:55 PM,73.9,70.2,88,29.94,10.0,North,4.6,-,0.01,Rain,Light Rain,360,2013-07-12 17:55:00
2:15 PM,73.9,69.8,87,29.96,10.0,WNW,3.5,-,N/A,Rain,Light Rain,290,2013-07-12 18:15:00
2:35 PM,73.9,69.8,87,29.96,7.0,Calm,Calm,-,0.02,Rain,Light Rain,0,2013-07-12 18:35:00
2:55 PM,74.1,70.5,88,29.95,10.0,Calm,Calm,-,0.03,Rain,Light Rain,0,2013-07-12 18:55:00
3:15 PM,74.5,70.9,88,29.96,10.0,Calm,Calm,-,N/A,Rain,Light Rain,0,2013-07-12 19:15:00
3:35 PM,74.7,71.1,88,29.95,10.0,East,3.5,-,N/A,,Light Drizzle,80,2013-07-12 19:35:00
3:55 PM,74.5,70.9,88,29.96,10.0,Calm,Calm,-,N/A,,Overcast,0,2013-07-12 19:55:00
4:15 PM,74.5,70.7,88,29.96,10.0,Calm,Calm,-,N/A,,Overcast,0,2013-07-12 20:15:00
4:35 PM,75.0,70.9,87,29.96,10.0,Calm,Calm,-,N/A,,Mostly Cloudy,0,2013-07-12 20:35:00
4:55 PM,75.2,70.7,86,29.96,10.0,Calm,Calm,-,N/A,,Mostly Cloudy,0,2013-07-12 20:55:00
5:15 PM,75.6,70.9,85,29.97,10.0,Calm,Calm,-,N/A,,Mostly Cloudy,0,2013-07-12 21:15:00
5:35 PM,75.9,70.7,84,29.96,10.0,Calm,Calm,-,N/A,,Scattered Clouds,0,2013-07-12 21:35:00
5:55 PM,75.7,70.9,85,29.96,10.0,Calm,Calm,-,N/A,,Mostly Cloudy,0,2013-07-12 21:55:00
6:15 PM,75.6,71.1,86,29.95,10.0,Calm,Calm,-,N/A,,Scattered Clouds,0,2013-07-12 22:15:00
6:35 PM,75.4,71.4,87,29.95,10.0,Calm,Calm,-,N/A,,Clear,0,2013-07-12 22:35:00
6:55 PM,75.0,71.2,88,29.95,10.0,NE,3.5,-,N/A,,Clear,40,2013-07-12 22:55:00
7:15 PM,74.7,71.4,90,29.96,10.0,Calm,Calm,-,N/A,,Clear,0,2013-07-12 23:15:00
7:35 PM,74.7,71.6,90,29.96,10.0,Calm,Calm,-,N/A,,Clear,0,2013-07-12 23:35:00
7:55 PM,74.3,71.6,91,29.97,10.0,Calm,Calm,-,N/A,,Clear,0,2013-07-12 23:55:00
8:15 PM,74.1,71.6,92,29.98,10.0,Calm,Calm,-,N/A,,Clear,0,2013-07-13 00:15:00
8:35 PM,73.6,71.6,93,29.99,10.0,Calm,Calm,-,N/A,,Clear,0,2013-07-13 00:35:00
8:55 PM,73.4,71.6,94,30.00,10.0,Calm,Calm,-,N/A,,Mostly Cloudy,0,2013-07-13 00:55:00
9:15 PM,73.4,71.6,94,29.99,10.0,Calm,Calm,-,N/A,,Mostly Cloudy,0,2013-07-13 01:15:00
9:35 PM,73.4,71.4,93,30.00,10.0,Calm,Calm,-,N/A,,Scattered Clouds,0,2013-07-13 01:35:00
9:55 PM,73.4,71.2,93,30.00,10.0,Calm,Calm,-,N/A,,Clear,0,2013-07-13 01:55:00
10:15 PM,73.0,71.2,94,30.01,10.0,East,3.5,-,N/A,,Clear,90,2013-07-13 02:15:00
10:35 PM,72.9,71.1,94,30.02,10.0,Calm,Calm,-,N/A,,Clear,0,2013-07-13 02:35:00
10:55 PM,72.9,71.1,94,30.02,10.0,Calm,Calm,-,N/A,,Mostly Cloudy,0,2013-07-13 02:55:00
11:15 PM,72.9,70.9,93,30.02,10.0,Calm,Calm,-,N/A,,Overcast,0,2013-07-13 03:15:00
11:35 PM,72.9,70.9,93,30.02,10.0,Calm,Calm,-,N/A,,Mostly Cloudy,0,2013-07-13 03:35:00
11:55 PM,72.7,70.7,93,30.02,10.0,Calm,Calm,-,N/A,,Mostly Cloudy,0,2013-07-13 03:55:00